Weather in Staritsa

Russia / Tomsk District     58°07′55″N   80°34′32″E
temp.,
°C
wind,
m/s
gust,
m/s
humid.,
%
clouds,
%
prec.,
mm/h
press.,
hPa
HPBL,
m
25 february, thu
thu2501:00−22ene5128897 0.0 1013580
04:00−22ene4997100 1.6 1010608
07:00−22ne3798100 2.6 1009440
10:00−23nne2598100 0.4 1009340
13:00−21nw1191100 0.6 1010496
16:00−20wnw2291100 0.2 1012519
19:00−23nnw1298100 0.4 101440
22:00−25nnw2399100 0.2 101585
26 february, fri
fri2601:00−29nw2299100 0.2 101659
04:00−31wnw2298100 0.0 101831
07:00−34wnw239871 0.0 102135
10:00−34w259728 0.0 1024159
13:00−28w249350 0.0 1026382
16:00−25wsw3593100 0.0 1027494
19:00−26wsw2596100 0.1 1029412
22:00−27wsw269899 0.1 1030231
27 february, sat
sat2701:00−28wsw249898 0.1 103196
04:00−30wsw2298100 0.0 103159
07:00−31wsw229899 0.1 103232
10:00−30wsw2498100 0.0 1033170
13:00−25sw249395 0.0 1033405
16:00−22sw2492100 0.0 1033524
19:00−25sw2296100 0.0 103419
22:00−28sw239874 0.0 103548
28 february, sun
sun2801:00−30sw239744 0.0 103537
04:00−31ssw23980 0.0 103527
07:00−32s23980 0.0 103627
10:00−31s25970 0.0 1036136
13:00−24sse259618 0.0 1035265
16:00−19sse369284 0.0 1033418
19:00−22ese369690 0.0 1031131
22:00−22se3995100 0.0 1029314
1 march, mon
mon101:00−23ese389698 0.0 1026244
04:00−23ese389692 0.0 1023240
07:00−21e389795 0.1 1020289
10:00−19e3797100 0.2 1016303
13:00−15ene4794100 0.5 1014342
16:00−13ene3693100 0.3 1012402
19:00−13ne249699 0.4 1012124
22:00−15ne129797 0.1 101225